NKS223 KSAN-KPHX

Flight info

Callsign NKS223
Flight time 1h 3m
Altitude 35000
Route ZZOOO4 HOGGZ HYDRR1
Aircraft A21N/M-SDE2E3FGHIRWXY/LB1

Departure

Time 2026-05-06 23:27
Airport San Diego International Airport (KSAN)

Arrival

Time 2026-05-07 00:30
Airport Phoenix Sky Harbor International Airport (KPHX)
Time Latitude Longitude Altitude Speed Heading
2026-05-06 23:07 32.73316 -117.19684 23 ft 0 kts 140°
2026-05-06 23:17 32.73324 -117.19692 23 ft 3 kts 127°
2026-05-06 23:17 32.73331 -117.19709 25 ft 3 kts 77°
2026-05-06 23:17 32.73323 -117.19726 24 ft 2 kts 27°
2026-05-06 23:18 32.73315 -117.19730 25 ft 1 kts 20°
2026-05-06 23:18 32.73314 -117.19730 25 ft 0 kts 20°
2026-05-06 23:21 32.73316 -117.19730 25 ft 1 kts 20°
2026-05-06 23:22 32.73371 -117.19707 22 ft 15 kts 19°
2026-05-06 23:22 32.73406 -117.19603 23 ft 16 kts 104°
2026-05-06 23:22 32.73371 -117.19460 24 ft 24 kts 106°
2026-05-06 23:22 32.73323 -117.19255 22 ft 27 kts 106°
2026-05-06 23:23 32.73268 -117.19034 23 ft 29 kts 105°
2026-05-06 23:23 32.73212 -117.18802 23 ft 30 kts 105°
2026-05-06 23:23 32.73151 -117.18549 20 ft 32 kts 106°
2026-05-06 23:23 32.73088 -117.18287 19 ft 34 kts 106°
2026-05-06 23:24 32.73023 -117.18016 20 ft 35 kts 105°
2026-05-06 23:24 32.72957 -117.17752 19 ft 20 kts 111°
2026-05-06 23:24 32.72955 -117.17679 19 ft 0 kts 76°
2026-05-06 23:25 32.72967 -117.17642 19 ft 14 kts 61°
2026-05-06 23:25 32.73040 -117.17651 19 ft 13 kts 283°
2026-05-06 23:26 32.73046 -117.17682 19 ft 0 kts 285°
2026-05-06 23:26 32.73047 -117.17683 19 ft 1 kts 285°
2026-05-06 23:26 32.73073 -117.17794 19 ft 43 kts 286°
2026-05-06 23:27 32.73237 -117.18471 20 ft 123 kts 286°
2026-05-06 23:27 32.73541 -117.19699 132 ft 175 kts 287°
2026-05-06 23:27 32.73870 -117.21068 1146 ft 173 kts 287°
2026-05-06 23:27 32.74190 -117.22463 1808 ft 179 kts 286°
2026-05-06 23:28 32.74517 -117.23953 2047 ft 197 kts 286°
2026-05-06 23:28 32.74916 -117.25615 2350 ft 216 kts 288°
2026-05-06 23:28 32.75359 -117.27402 2553 ft 238 kts 288°
2026-05-06 23:28 32.75835 -117.29282 3295 ft 238 kts 287°
2026-05-06 23:29 32.76303 -117.31197 3913 ft 245 kts 287°
2026-05-06 23:29 32.76518 -117.33214 4562 ft 249 kts 260°
2026-05-06 23:29 32.75733 -117.35058 5149 ft 256 kts 223°
2026-05-06 23:29 32.74160 -117.36050 5706 ft 262 kts 188°
2026-05-06 23:30 32.72361 -117.35862 6294 ft 262 kts 154°
2026-05-06 23:30 32.70920 -117.34614 6928 ft 261 kts 132°
2026-05-06 23:30 32.69678 -117.32995 7604 ft 262 kts 127°
2026-05-06 23:30 32.68530 -117.31338 8273 ft 264 kts 126°
2026-05-06 23:31 32.67344 -117.29659 8953 ft 266 kts 128°
2026-05-06 23:31 32.66084 -117.28011 9616 ft 270 kts 130°
2026-05-06 23:31 32.64762 -117.26404 10253 ft 273 kts 131°
2026-05-06 23:31 32.63574 -117.24651 10799 ft 272 kts 114°
2026-05-06 23:32 32.62921 -117.22522 11124 ft 283 kts 97°
2026-05-06 23:32 32.62719 -117.20120 11264 ft 303 kts 91°
2026-05-06 23:32 32.62534 -117.17540 11393 ft 324 kts 92°
2026-05-06 23:32 32.62303 -117.14790 11526 ft 345 kts 93°
2026-05-06 23:33 32.62095 -117.11911 11877 ft 353 kts 87°
2026-05-06 23:33 32.62396 -117.09019 12432 ft 354 kts 72°
2026-05-06 23:33 32.62918 -117.07194 12844 ft 354 kts 67°
2026-05-06 23:33 32.63803 -117.04444 13447 ft 357 kts 67°
2026-05-06 23:34 32.64705 -117.01695 14052 ft 360 kts 66°
2026-05-06 23:34 32.65624 -116.98916 14615 ft 362 kts 66°
2026-05-06 23:34 32.66421 -116.96068 15182 ft 367 kts 75°
2026-05-06 23:34 32.66715 -116.93039 15741 ft 372 kts 85°
2026-05-06 23:35 32.66782 -116.89947 16325 ft 375 kts 85°
2026-05-06 23:35 32.66852 -116.86843 16900 ft 377 kts 85°
2026-05-06 23:35 32.66922 -116.83715 17479 ft 379 kts 85°
2026-05-06 23:35 32.66993 -116.80567 18023 ft 382 kts 85°
2026-05-06 23:36 32.67066 -116.77403 18531 ft 385 kts 85°
2026-05-06 23:36 32.67132 -116.74214 19012 ft 388 kts 86°
2026-05-06 23:36 32.67136 -116.71003 19504 ft 390 kts 87°
2026-05-06 23:36 32.67085 -116.67766 19998 ft 393 kts 88°
2026-05-06 23:37 32.67008 -116.64552 20462 ft 395 kts 88°
2026-05-06 23:37 32.66925 -116.61276 20928 ft 397 kts 88°
2026-05-06 23:37 32.66849 -116.57975 21389 ft 400 kts 88°
2026-05-06 23:37 32.66783 -116.54671 21882 ft 400 kts 87°
2026-05-06 23:38 32.66724 -116.51362 22305 ft 401 kts 87°
2026-05-06 23:38 32.66668 -116.48030 22706 ft 403 kts 87°
2026-05-06 23:38 32.66614 -116.44738 23105 ft 406 kts 87°
2026-05-06 23:38 32.66676 -116.41389 23497 ft 405 kts 81°
2026-05-06 23:39 32.66986 -116.38059 23839 ft 407 kts 80°
2026-05-06 23:39 32.67299 -116.34706 24197 ft 409 kts 80°
2026-05-06 23:39 32.67608 -116.31346 24549 ft 410 kts 80°
2026-05-06 23:39 32.67914 -116.27969 24909 ft 412 kts 80°
2026-05-06 23:40 32.68217 -116.24579 25287 ft 412 kts 81°
2026-05-06 23:40 32.68519 -116.21198 25702 ft 412 kts 81°
2026-05-06 23:40 32.68823 -116.17808 26076 ft 412 kts 80°
2026-05-06 23:40 32.69128 -116.14413 26439 ft 414 kts 80°
2026-05-06 23:41 32.69432 -116.11012 26763 ft 415 kts 80°
2026-05-06 23:41 32.69735 -116.07590 27113 ft 416 kts 80°
2026-05-06 23:41 32.70038 -116.04171 27427 ft 418 kts 80°
2026-05-06 23:41 32.70345 -116.00727 27735 ft 420 kts 80°
2026-05-06 23:42 32.70662 -115.97269 28061 ft 421 kts 80°
2026-05-06 23:42 32.70979 -115.93845 28390 ft 423 kts 80°
2026-05-06 23:42 32.71302 -115.90364 28719 ft 424 kts 80°
2026-05-06 23:42 32.71627 -115.86889 29038 ft 425 kts 80°
2026-05-06 23:43 32.71950 -115.83402 29481 ft 423 kts 80°
2026-05-06 23:43 32.72269 -115.79938 29917 ft 421 kts 80°
2026-05-06 23:43 32.72583 -115.76488 30313 ft 419 kts 80°
2026-05-06 23:43 32.72895 -115.73048 30668 ft 418 kts 80°
2026-05-06 23:44 32.73205 -115.69612 31051 ft 417 kts 79°
2026-05-06 23:44 32.73514 -115.66191 31375 ft 416 kts 79°
2026-05-06 23:44 32.73823 -115.62774 31697 ft 416 kts 79°
2026-05-06 23:44 32.74130 -115.59357 31971 ft 416 kts 79°
2026-05-06 23:45 32.74435 -115.55932 32277 ft 416 kts 79°
2026-05-06 23:45 32.74739 -115.52518 32588 ft 415 kts 79°
2026-05-06 23:45 32.75003 -115.49092 32895 ft 416 kts 81°
2026-05-06 23:45 32.75156 -115.45652 33200 ft 417 kts 83°
2026-05-06 23:46 32.75232 -115.42202 33493 ft 417 kts 84°
2026-05-06 23:46 32.75272 -115.38757 33791 ft 417 kts 84°
2026-05-06 23:46 32.75304 -115.35315 34056 ft 416 kts 84°
2026-05-06 23:46 32.75347 -115.31869 34274 ft 417 kts 84°
2026-05-06 23:47 32.75408 -115.28406 34438 ft 419 kts 84°
2026-05-06 23:47 32.75485 -115.24927 34608 ft 421 kts 84°
2026-05-06 23:47 32.75568 -115.21483 34786 ft 422 kts 84°
2026-05-06 23:47 32.75654 -115.17987 34941 ft 424 kts 84°
2026-05-06 23:48 32.75738 -115.14481 35001 ft 425 kts 84°
2026-05-06 23:48 32.75893 -115.07459 34999 ft 425 kts 84°
2026-05-06 23:49 32.76043 -115.00423 35003 ft 426 kts 85°
2026-05-06 23:49 32.76186 -114.93354 35002 ft 429 kts 85°
2026-05-06 23:50 32.76329 -114.86249 34976 ft 429 kts 85°
2026-05-06 23:50 32.76534 -114.75607 34989 ft 430 kts 85°
2026-05-06 23:51 32.76666 -114.68506 34989 ft 430 kts 85°
2026-05-06 23:51 32.76789 -114.61401 34990 ft 430 kts 85°
2026-05-06 23:52 32.76902 -114.54259 34991 ft 430 kts 85°
2026-05-06 23:52 32.76999 -114.47158 34984 ft 430 kts 85°
2026-05-06 23:53 32.77092 -114.40056 34964 ft 430 kts 85°
2026-05-06 23:53 32.77140 -114.36505 34728 ft 430 kts 86°
2026-05-06 23:53 32.77186 -114.32947 34470 ft 433 kts 87°
2026-05-06 23:54 32.77231 -114.29361 34242 ft 434 kts 86°
2026-05-06 23:54 32.77274 -114.25785 34022 ft 434 kts 86°
2026-05-06 23:54 32.77316 -114.22205 33771 ft 433 kts 86°
2026-05-06 23:54 32.77355 -114.18621 33510 ft 433 kts 86°
2026-05-06 23:55 32.77392 -114.15059 33001 ft 429 kts 86°
2026-05-06 23:55 32.77428 -114.11520 31976 ft 428 kts 86°
2026-05-06 23:55 32.77469 -114.08001 30978 ft 426 kts 85°
2026-05-06 23:55 32.77747 -114.04525 30124 ft 419 kts 79°
2026-05-06 23:56 32.78140 -114.01125 29265 ft 412 kts 79°
2026-05-06 23:56 32.78512 -113.97779 28372 ft 405 kts 80°
2026-05-06 23:56 32.78871 -113.94482 27484 ft 400 kts 80°
2026-05-06 23:56 32.79223 -113.91226 26617 ft 394 kts 80°
2026-05-06 23:57 32.79571 -113.88013 25761 ft 389 kts 80°
2026-05-06 23:57 32.79915 -113.84844 25202 ft 386 kts 80°
2026-05-06 23:57 32.80260 -113.81677 25017 ft 388 kts 80°
2026-05-06 23:57 32.80605 -113.78496 24961 ft 388 kts 80°
2026-05-06 23:58 32.80950 -113.75308 24974 ft 389 kts 80°
2026-05-06 23:58 32.81408 -113.72145 24973 ft 387 kts 73°
2026-05-06 23:58 32.82285 -113.69189 24976 ft 375 kts 64°
2026-05-06 23:58 32.83558 -113.66492 24978 ft 372 kts 56°
2026-05-06 23:59 32.85176 -113.64092 24979 ft 372 kts 49°
2026-05-06 23:59 32.86895 -113.61797 24982 ft 372 kts 49°
2026-05-06 23:59 32.88612 -113.59493 24980 ft 372 kts 49°
2026-05-06 23:59 32.90326 -113.57185 24979 ft 372 kts 49°
2026-05-07 00:00 32.92040 -113.54876 24984 ft 372 kts 49°
2026-05-07 00:00 32.93777 -113.52537 24817 ft 372 kts 49°
2026-05-07 00:00 32.95486 -113.50238 24575 ft 369 kts 49°
2026-05-07 00:00 32.96608 -113.48726 24417 ft 368 kts 49°
2026-05-07 00:01 32.98870 -113.45677 23922 ft 366 kts 49°
2026-05-07 00:01 33.00553 -113.43399 23411 ft 366 kts 49°
2026-05-07 00:01 33.02213 -113.41148 22888 ft 364 kts 49°
2026-05-07 00:01 33.03883 -113.38884 22410 ft 362 kts 49°
2026-05-07 00:02 33.05548 -113.36630 21918 ft 360 kts 49°
2026-05-07 00:02 33.07201 -113.34399 21709 ft 358 kts 49°
2026-05-07 00:02 33.08852 -113.32171 21480 ft 359 kts 49°
2026-05-07 00:02 33.10508 -113.29936 21246 ft 358 kts 49°
2026-05-07 00:03 33.12166 -113.27696 21008 ft 358 kts 49°
2026-05-07 00:03 33.13811 -113.25471 20778 ft 357 kts 49°
2026-05-07 00:03 33.15434 -113.23272 20542 ft 357 kts 49°
2026-05-07 00:03 33.17082 -113.21039 20309 ft 356 kts 49°
2026-05-07 00:04 33.18722 -113.18817 20074 ft 356 kts 49°
2026-05-07 00:04 33.20360 -113.16597 19845 ft 355 kts 49°
2026-05-07 00:04 33.21975 -113.14402 19615 ft 355 kts 49°
2026-05-07 00:04 33.23603 -113.12184 19382 ft 354 kts 49°
2026-05-07 00:05 33.25221 -113.09964 19139 ft 352 kts 51°
2026-05-07 00:05 33.26523 -113.07542 18928 ft 342 kts 64°
2026-05-07 00:05 33.27096 -113.05804 18769 ft 336 kts 73°
2026-05-07 00:05 33.27524 -113.03065 18633 ft 336 kts 85°
2026-05-07 00:06 33.27632 -112.99352 18327 ft 337 kts 87°
2026-05-07 00:06 33.27700 -112.96552 18052 ft 336 kts 87°
2026-05-07 00:06 33.27767 -112.93767 17794 ft 335 kts 87°
2026-05-07 00:06 33.27813 -112.91921 17668 ft 333 kts 87°
2026-05-07 00:07 33.27882 -112.89137 17458 ft 333 kts 87°
2026-05-07 00:07 33.27949 -112.86371 17219 ft 332 kts 87°
2026-05-07 00:07 33.28012 -112.83653 17032 ft 321 kts 87°
2026-05-07 00:07 33.28103 -112.81010 16757 ft 314 kts 84°
2026-05-07 00:08 33.28299 -112.78427 16565 ft 309 kts 82°
2026-05-07 00:08 33.28549 -112.75876 16281 ft 309 kts 82°
2026-05-07 00:08 33.28814 -112.73359 15989 ft 307 kts 82°
2026-05-07 00:08 33.29081 -112.70826 15691 ft 306 kts 82°
2026-05-07 00:09 33.29337 -112.68312 15394 ft 304 kts 82°
2026-05-07 00:09 33.29583 -112.65808 15101 ft 302 kts 82°
2026-05-07 00:09 33.29822 -112.63313 14806 ft 301 kts 82°
2026-05-07 00:09 33.30057 -112.60833 14517 ft 299 kts 82°
2026-05-07 00:10 33.30288 -112.58353 14224 ft 298 kts 82°
2026-05-07 00:10 33.30517 -112.55895 13934 ft 296 kts 82°
2026-05-07 00:10 33.30743 -112.53446 13631 ft 295 kts 82°
2026-05-07 00:10 33.30964 -112.51039 13338 ft 293 kts 82°
2026-05-07 00:11 33.31188 -112.48618 13055 ft 292 kts 82°
2026-05-07 00:11 33.31410 -112.46203 12771 ft 291 kts 82°
2026-05-07 00:11 33.31629 -112.43793 12492 ft 291 kts 81°
2026-05-07 00:11 33.31846 -112.41386 12207 ft 290 kts 81°
2026-05-07 00:12 33.32062 -112.38988 11927 ft 289 kts 81°
2026-05-07 00:12 33.32279 -112.36604 11649 ft 287 kts 81°
2026-05-07 00:12 33.32493 -112.34262 11375 ft 286 kts 80°
2026-05-07 00:12 33.32710 -112.31894 11095 ft 284 kts 81°
2026-05-07 00:13 33.32926 -112.29555 10821 ft 283 kts 81°
2026-05-07 00:13 33.33140 -112.27218 10545 ft 281 kts 80°
2026-05-07 00:13 33.33350 -112.24901 10276 ft 280 kts 80°
2026-05-07 00:13 33.33557 -112.22586 9993 ft 279 kts 80°
2026-05-07 00:14 33.33765 -112.20283 9713 ft 277 kts 80°
2026-05-07 00:14 33.33973 -112.17988 9421 ft 276 kts 80°
2026-05-07 00:14 33.34174 -112.15753 9337 ft 265 kts 80°
2026-05-07 00:14 33.34364 -112.13616 9226 ft 251 kts 80°
2026-05-07 00:15 33.34549 -112.11543 9121 ft 251 kts 81°
2026-05-07 00:15 33.34734 -112.09465 9015 ft 251 kts 83°
2026-05-07 00:15 33.34741 -112.07387 8767 ft 253 kts 88°
2026-05-07 00:15 33.34716 -112.05284 8492 ft 252 kts 88°
2026-05-07 00:16 33.34690 -112.03190 8226 ft 251 kts 89°
2026-05-07 00:16 33.34662 -112.01099 7960 ft 251 kts 89°
2026-05-07 00:16 33.34635 -111.99013 7693 ft 250 kts 88°
2026-05-07 00:16 33.34607 -111.96958 7434 ft 246 kts 89°
2026-05-07 00:17 33.34579 -111.94919 7176 ft 242 kts 89°
2026-05-07 00:17 33.34554 -111.92931 6960 ft 237 kts 88°
2026-05-07 00:17 33.34575 -111.90968 6812 ft 236 kts 87°
2026-05-07 00:17 33.34622 -111.89010 6611 ft 233 kts 86°
2026-05-07 00:18 33.34676 -111.87097 6243 ft 223 kts 87°
2026-05-07 00:18 33.34723 -111.85334 6107 ft 202 kts 86°
2026-05-07 00:18 33.34763 -111.83727 5929 ft 187 kts 86°
2026-05-07 00:18 33.34799 -111.82200 5600 ft 185 kts 86°
2026-05-07 00:19 33.34836 -111.80661 5332 ft 183 kts 86°
2026-05-07 00:19 33.34870 -111.79141 5082 ft 182 kts 87°
2026-05-07 00:19 33.34905 -111.77625 4768 ft 183 kts 88°
2026-05-07 00:19 33.34940 -111.76093 4460 ft 183 kts 88°
2026-05-07 00:20 33.34973 -111.74571 4179 ft 183 kts 88°
2026-05-07 00:20 33.35005 -111.73056 3909 ft 180 kts 88°
2026-05-07 00:20 33.35035 -111.71582 3682 ft 178 kts 88°
2026-05-07 00:20 33.35065 -111.70089 3648 ft 180 kts 88°
2026-05-07 00:21 33.35095 -111.68572 3659 ft 183 kts 87°
2026-05-07 00:21 33.35127 -111.67053 3652 ft 182 kts 89°
2026-05-07 00:21 33.35159 -111.65537 3655 ft 182 kts 89°
2026-05-07 00:21 33.35191 -111.64027 3652 ft 182 kts 89°
2026-05-07 00:22 33.35364 -111.62525 3695 ft 183 kts 67°
2026-05-07 00:22 33.36149 -111.61376 3785 ft 179 kts 22°
2026-05-07 00:22 33.37313 -111.61339 3930 ft 171 kts 332°
2026-05-07 00:22 33.38063 -111.62365 4103 ft 167 kts 298°
2026-05-07 00:23 33.38611 -111.63593 4167 ft 166 kts 296°
2026-05-07 00:23 33.39137 -111.64832 4165 ft 166 kts 295°
2026-05-07 00:23 33.39646 -111.66050 4137 ft 165 kts 295°
2026-05-07 00:23 33.40139 -111.67287 4134 ft 166 kts 290°
2026-05-07 00:24 33.40519 -111.68565 3983 ft 160 kts 288°
2026-05-07 00:24 33.40876 -111.69841 3913 ft 162 kts 288°
2026-05-07 00:24 33.41237 -111.71141 3981 ft 165 kts 288°
2026-05-07 00:24 33.41600 -111.72448 4008 ft 167 kts 288°
2026-05-07 00:25 33.41966 -111.73764 4019 ft 165 kts 287°
2026-05-07 00:25 33.42333 -111.75085 4021 ft 167 kts 287°
2026-05-07 00:25 33.42693 -111.76391 4027 ft 167 kts 288°
2026-05-07 00:25 33.43059 -111.77716 4028 ft 167 kts 288°
2026-05-07 00:26 33.43423 -111.79030 4031 ft 165 kts 288°
2026-05-07 00:26 33.43789 -111.80341 4019 ft 166 kts 288°
2026-05-07 00:26 33.44044 -111.81684 4010 ft 165 kts 276°
2026-05-07 00:26 33.44062 -111.83073 3804 ft 165 kts 270°
2026-05-07 00:27 33.44062 -111.84380 3573 ft 150 kts 270°
2026-05-07 00:27 33.44065 -111.85581 3245 ft 144 kts 271°
2026-05-07 00:27 33.44066 -111.86788 3024 ft 144 kts 269°
2026-05-07 00:27 33.44068 -111.88014 3014 ft 148 kts 269°
2026-05-07 00:28 33.44071 -111.89264 2817 ft 151 kts 271°
2026-05-07 00:28 33.44073 -111.90521 2601 ft 150 kts 270°
2026-05-07 00:28 33.44074 -111.91771 2403 ft 151 kts 271°
2026-05-07 00:28 33.44080 -111.93025 2198 ft 149 kts 271°
2026-05-07 00:29 33.44095 -111.94266 1957 ft 149 kts 271°
2026-05-07 00:29 33.44089 -111.95493 1797 ft 149 kts 271°
2026-05-07 00:30 33.44080 -111.99173 1250 ft 143 kts 272°
2026-05-07 00:30 33.44089 -112.00299 1134 ft 122 kts 270°
2026-05-07 00:30 33.44086 -112.01130 1132 ft 75 kts 270°
2026-05-07 00:30 33.44085 -112.01540 1131 ft 24 kts 269°
2026-05-07 00:31 33.44043 -112.01690 1134 ft 17 kts 224°
2026-05-07 00:31 33.43977 -112.01621 1134 ft 20 kts 89°
2026-05-07 00:31 33.43973 -112.01426 1133 ft 27 kts 91°
2026-05-07 00:31 33.43971 -112.01186 1131 ft 29 kts 90°